Change the Weather History Date:

Sunday, September 23, 2012

  Actual Average Record
Temperature  
Mean Temperature 54 °F -  
Max Temperature 59 °F 56 °F 65 °F (1952)
Min Temperature 52 °F 46 °F 34 °F (1956)
Degree Days  
Heating Degree Days 10    
Growing Degree Days 4 (Base 50)    
Moisture  
Dew Point 52 °F    
Average Humidity 89    
Maximum Humidity 100    
Minimum Humidity 70    
Precipitation  
Precipitation 0.17 in - - ()
Sea Level Pressure  
Sea Level Pressure 30.01 in    
Wind  
Wind Speed 9 mph (SSE)    
Max Wind Speed 17 mph    
Max Gust Speed 25 mph    
Visibility 8 miles    
Events Rain    
Averages and records for this station are not official NWS values.
T = Trace of Precipitation, MM = Missing Value Source: NWS Daily Summary

Daily Weather History Graph

Daily Weather History Graph

Search for Another Location

Airport or City:

Trip Planner

Search our weather history database for the weather conditions in past years. The results will help you decide how hot, cold, wet, or windy it might be!

Date:

Astronomy

Sep. 23, 2012 Rise Set
Actual Time 6:49 AM AKDT 6:55 PM AKDT
Civil Twilight 6:11 AM AKDT 7:34 PM AKDT
Nautical Twilight 5:26 AM AKDT 8:19 PM AKDT
Astronomical Twilight 4:37 AM AKDT 9:07 PM AKDT
Moon 4:04 PM AKDT (9/23) No Moon Set
Length of Visible Light 13h 22m
Length of Day
12h 06m
First Quarter, 61% of the Moon is Illuminated
Sep 23
First Quarter
Sep 29
Full
Oct 7
Last Quarter
Oct 15
New
Oct 21
First Quarter

Hourly Weather History & Observations

Time (AKDT) Temp. Dew Point Humidity Pressure Visibility Wind Dir Wind Speed Gust Speed Precip Events Conditions
12:53 AM 57.0 °F 48.0 °F 72% 29.92 in 10.0 mi ESE 13.8 mph - N/A   Overcast
1:53 AM 57.0 °F 48.0 °F 72% 29.93 in 10.0 mi East 17.3 mph 25.3 mph N/A   Overcast
2:53 AM 57.0 °F 48.0 °F 72% 29.93 in 10.0 mi ESE 13.8 mph - N/A   Overcast
3:53 AM 57.0 °F 48.9 °F 74% 29.94 in 10.0 mi ESE 13.8 mph - N/A   Overcast
4:53 AM 57.9 °F 48.9 °F 72% 29.94 in 10.0 mi ESE 11.5 mph - N/A   Overcast
5:53 AM 57.9 °F 48.9 °F 72% 29.94 in 10.0 mi ESE 13.8 mph - N/A   Overcast
6:53 AM 57.9 °F 48.9 °F 72% 29.94 in 10.0 mi SE 9.2 mph 19.6 mph N/A   Overcast
7:53 AM 57.9 °F 48.0 °F 70% 29.96 in 10.0 mi SSE 8.1 mph - 0.00 in   Overcast
8:53 AM 55.0 °F 53.1 °F 93% 29.97 in 6.0 mi SSW 5.8 mph - 0.01 in Rain Light Rain
9:51 AM 53.6 °F 53.6 °F 100% 29.99 in 2.5 mi SSW 5.8 mph - 0.06 in Rain Rain
9:53 AM 54.0 °F 54.0 °F 100% 29.99 in 1.5 mi Calm Calm - 0.09 in Rain Heavy Rain
9:57 AM 53.6 °F 53.6 °F 100% 29.98 in 2.0 mi Calm Calm - 0.01 in Rain Heavy Rain
10:02 AM 53.6 °F 53.6 °F 100% 29.98 in 6.0 mi Calm Calm - 0.01 in Rain Light Rain
10:31 AM 53.6 °F 53.6 °F 100% 29.99 in 8.0 mi ESE 3.5 mph - 0.05 in Rain Light Rain
10:53 AM 54.0 °F 53.1 °F 97% 30.00 in 6.0 mi Calm Calm - 0.05 in Rain Light Rain
10:59 AM 53.6 °F 53.6 °F 100% 30.00 in 4.0 mi Calm Calm - 0.01 in Rain Light Rain
11:14 AM 55.4 °F 53.6 °F 94% 30.01 in 8.0 mi Calm Calm - 0.01 in Rain Light Rain
11:38 AM 55.4 °F 55.4 °F 100% 30.01 in 9.0 mi SE 3.5 mph - 0.01 in   Overcast
11:53 AM 57.0 °F 54.0 °F 89% 30.01 in 9.0 mi South 6.9 mph - 0.01 in   Overcast
11:59 AM 57.2 °F 55.4 °F 94% 30.01 in 8.0 mi SSW 3.5 mph - N/A   Overcast
12:53 PM 55.9 °F 54.0 °F 93% 30.02 in 6.0 mi South 9.2 mph 18.4 mph 0.01 in Rain Light Rain
1:03 PM 55.4 °F 55.4 °F 100% 30.02 in 7.0 mi South 10.4 mph 17.3 mph 0.00 in Rain Light Rain
1:53 PM 57.0 °F 54.0 °F 89% 30.03 in 6.0 mi South 15.0 mph 21.9 mph 0.00 in   Mostly Cloudy
2:53 PM 57.9 °F 53.1 °F 84% 30.04 in 10.0 mi SSW 12.7 mph - 0.00 in   Overcast
3:53 PM 57.0 °F 53.1 °F 87% 30.04 in 9.0 mi South 11.5 mph 18.4 mph N/A   Mostly Cloudy
4:53 PM 55.9 °F 52.0 °F 87% 30.05 in 10.0 mi South 12.7 mph 18.4 mph N/A   Mostly Cloudy
5:53 PM 55.9 °F 52.0 °F 87% 30.06 in 8.0 mi SSW 12.7 mph - N/A   Mostly Cloudy
6:53 PM 54.0 °F 52.0 °F 93% 30.06 in 7.0 mi South 12.7 mph 19.6 mph N/A   Mostly Cloudy
7:53 PM 54.0 °F 51.1 °F 90% 30.08 in 10.0 mi South 5.8 mph - 0.00 in   Overcast
8:53 PM 54.0 °F 52.0 °F 93% 30.08 in 10.0 mi ESE 5.8 mph - N/A   Overcast
9:53 PM 53.1 °F 52.0 °F 96% 30.09 in 10.0 mi SSE 4.6 mph - N/A   Overcast
10:53 PM 52.0 °F 51.1 °F 97% 30.09 in 10.0 mi Calm Calm - N/A   Overcast
11:53 PM 52.0 °F 48.9 °F 89% 30.08 in 10.0 mi East 5.8 mph - N/A   Overcast